KAL091 RKSI-KBOS

Flight info

Callsign KAL091
Flight time N/A
Altitude 33000
Route EGOBA2Y EGOBA Y697 LANAT Y51 SAMON Y142 GTC Y512 OATIS R580 OPHET DCT 52N170E/N0479F350 54N180E 56N170W 58N160W 60N150W DCT JAGIT DCT 61N130W/N0478F370 60N120W 58N110W 55N100W 52N090W 48N080W DCT EPTUL DCT JFUND JFUND2
Aircraft B77W/H-SDE1E2E3FGHIJ2J3J4J5M1RWXY/LB1D1

Departure

Time N/A
Airport Incheon International Airport (RKSI)

Arrival

Time 2026-05-03 23:10
Airport Boston Logan International Airport (KBOS)
Time Latitude Longitude Altitude Speed Heading
2026-05-03 23:00 42.42435 -70.98461 6571 ft 251 kts 133°
2026-05-03 23:00 42.41687 -70.97204 6441 ft 250 kts 133°
2026-05-03 23:01 42.40606 -70.95387 6228 ft 246 kts 133°
2026-05-03 23:01 42.39576 -70.93656 6043 ft 241 kts 133°
2026-05-03 23:01 42.38553 -70.91940 5839 ft 238 kts 133°
2026-05-03 23:01 42.37512 -70.90195 5673 ft 238 kts 133°
2026-05-03 23:02 42.36466 -70.88444 5487 ft 241 kts 133°
2026-05-03 23:02 42.35406 -70.86668 5317 ft 243 kts 133°
2026-05-03 23:02 42.34345 -70.84893 5136 ft 242 kts 133°
2026-05-03 23:02 42.33274 -70.83171 5062 ft 236 kts 137°
2026-05-03 23:03 42.32114 -70.81617 5028 ft 234 kts 140°
2026-05-03 23:03 42.30957 -70.80112 5026 ft 236 kts 140°
2026-05-03 23:03 42.29768 -70.78555 5025 ft 239 kts 140°
2026-05-03 23:03 42.28579 -70.76986 5014 ft 238 kts 140°
2026-05-03 23:04 42.27404 -70.75459 4946 ft 232 kts 142°
2026-05-03 23:04 42.26193 -70.74025 4643 ft 231 kts 145°
2026-05-03 23:04 42.24798 -70.73097 4218 ft 223 kts 176°
2026-05-03 23:04 42.23302 -70.73359 3852 ft 217 kts 208°
2026-05-03 23:05 42.22124 -70.74536 3577 ft 211 kts 224°
2026-05-03 23:05 42.21322 -70.76119 3338 ft 206 kts 253°
2026-05-03 23:05 42.21283 -70.78026 3143 ft 202 kts 275°
2026-05-03 23:05 42.21573 -70.79876 3069 ft 206 kts 289°
2026-05-03 23:06 42.22404 -70.81485 3038 ft 215 kts 306°
2026-05-03 23:06 42.23420 -70.83001 3016 ft 219 kts 309°
2026-05-03 23:06 42.24479 -70.84454 3019 ft 215 kts 311°
2026-05-03 23:06 42.25519 -70.85841 2978 ft 203 kts 311°
2026-05-03 23:07 42.26499 -70.87147 2808 ft 196 kts 310°
2026-05-03 23:07 42.27471 -70.88452 2435 ft 197 kts 311°
2026-05-03 23:07 42.28419 -70.89718 2077 ft 190 kts 311°
2026-05-03 23:07 42.29325 -70.90929 1727 ft 178 kts 310°
2026-05-03 23:08 42.30175 -70.92068 1501 ft 166 kts 310°
2026-05-03 23:08 42.30983 -70.93154 1258 ft 161 kts 311°
2026-05-03 23:08 42.31755 -70.94188 1045 ft 153 kts 310°
2026-05-03 23:08 42.32507 -70.95197 866 ft 152 kts 310°
2026-05-03 23:09 42.33247 -70.96190 665 ft 148 kts 313°
2026-05-03 23:09 42.33944 -70.97124 469 ft 138 kts 314°
2026-05-03 23:09 42.34615 -70.98022 297 ft 137 kts 314°
2026-05-03 23:09 42.35234 -70.98858 146 ft 147 kts 313°
2026-05-03 23:10 42.35900 -70.99756 30 ft 134 kts 315°
2026-05-03 23:10 42.36449 -71.00485 30 ft 90 kts 315°
2026-05-03 23:10 42.36790 -71.00944 30 ft 46 kts 315°
2026-05-03 23:10 42.36923 -71.01132 30 ft 19 kts 297°
2026-05-03 23:11 42.36919 -71.01261 30 ft 2 kts 255°
2026-05-03 23:11 42.36915 -71.01285 30 ft 3 kts 257°
2026-05-03 23:11 42.36913 -71.01295 30 ft 0 kts 258°
2026-05-03 23:11 42.36924 -71.01331 30 ft 12 kts 304°
2026-05-03 23:12 42.37016 -71.01456 30 ft 25 kts 316°
2026-05-03 23:12 42.37160 -71.01655 30 ft 35 kts 314°
2026-05-03 23:12 42.37290 -71.01823 30 ft 14 kts 309°
2026-05-03 23:12 42.37291 -71.01867 30 ft 4 kts 251°
2026-05-03 23:13 42.37273 -71.01902 30 ft 5 kts 228°
2026-05-03 23:13 42.37247 -71.01944 30 ft 9 kts 237°
2026-05-03 23:13 42.37238 -71.02053 30 ft 15 kts 279°
2026-05-03 23:13 42.37200 -71.02183 30 ft 14 kts 229°
2026-05-03 23:14 42.37147 -71.02193 30 ft 7 kts 153°
2026-05-03 23:14 42.37105 -71.02160 30 ft 6 kts 148°
2026-05-03 23:14 42.37094 -71.02150 30 ft 1 kts 148°
2026-05-03 23:14 42.37092 -71.02149 30 ft 0 kts 149°